Regional Weather Roundup
Issued by NWS

Home | Current Version | Previous Version | Text Only | Print | Product List | Glossary On
Versions: 1 2 3 4 5 6 7 8 9 10 11 12 13 14 15 16 17 18 19 20 21 22 23 24 25 26 27 28 29 30 31 32 33 34 35 36 37 38 39 40 41 42 43 44 45 46 47 48 49 50
000
ASUS43 KFSD 211410
RWRSD

WEATHER ROUNDUP FOR SOUTH DAKOTA
NATIONAL WEATHER SERVICE SIOUX FALLS SD
900 AM CDT SUN SEP 21 2014

NOTE: "FAIR" INDICATES FEW OR NO CLOUDS BELOW 12,000 FEET WITH NO
SIGNIFICANT WEATHER AND/OR OBSTRUCTIONS TO VISIBILITY.


SDZ001>005-009-010-012>017-211500-
NORTHWEST AND NORTH CENTRAL SOUTH DAKOTA

CITY           SKY/WX    TMP DP  RH WIND       PRES   REMARKS
BUFFALO          N/A     44  36  73 W7        30.27S
FAITH            N/A     52  37  56 NW8       30.32R
MOBRIDGE       SUNNY     51  43  74 NW9       30.26R
$$

SDZ012>016-024>037-041>051-057-063-072>074-211500-
SOUTHWEST AND SOUTH CENTRAL SOUTH DAKOTA

CITY           SKY/WX    TMP DP  RH WIND       PRES   REMARKS
RAPID CTY ARPT SUNNY     53  39  59 NW6       30.35R
PIERRE         SUNNY     55  45  68 NW7       30.28R
CUSTER         SUNNY     49  35  58 W6        30.40S
ELLSWORTH AFB  SUNNY     52  39  60 W5        30.34R
PHILIP         SUNNY     46  39  76 W3        30.32R
PINE RIDGE     SUNNY     41  37  86 CALM      30.36R
WINNER         FAIR      54  40  59 W9        30.30R
$$

SDZ004>011-016>023-039-040-211500-
NORTHEAST SOUTH DAKOTA

CITY           SKY/WX    TMP DP  RH WIND       PRES   REMARKS
ABERDEEN       SUNNY     54  45  71 NW9       30.24R
WATERTOWN      SUNNY     53  47  79 NW14      30.20R
SISSETON         N/A     55  50  83 N13       30.18R
$$

SDZ017-020-022-023-036>040-048>070-211500-
SOUTHEAST SOUTH DAKOTA

CITY           SKY/WX    TMP DP  RH WIND       PRES   REMARKS
SIOUX FALLS    SUNNY     55  46  71 NW13      30.20R
HURON          SUNNY     53  42  66 NW10      30.24R
CHAMBERLAIN    SUNNY     52  41  66 NW6       30.28R
MITCHELL       SUNNY     53  43  68 NW9       30.25R
YANKTON        SUNNY     55  43  62 NW12      30.24R
$$

ABBREVIATIONS USED IN REMARKS
   TC - TEMPERATURE IN CELSIUS
  WCI - WIND CHILL INDEX
   HX - HEAT INDEX
  VSB - VISIBILITY




USA.gov is the U.S. government's official web portal to all federal, state and local government web resources and services.